EW7833 Weather Reports


Display with metric or nautical units.
time (UTC)temp
F
wind
direction
speed
MPH
gust
MPH
rain 1hr
in
rain 24hr
in
rain mn
in
humidity
%
barometer
mb
20260509093021 47 261 1.0 6.0 0.00 0.00 0.00 67 999.2
20260509091534 46 136 0.0 1.0 0.00 0.00 0.00 69 999.2
20260509090022 45 240 0.0 2.0 0.00 0.00 0.00 73 999.4
20260509084521 43 131 0.0 1.0 0.00 0.00 0.00 78 999.5
20260509083016 43 131 0.0 0.0 0.00 0.00 0.00 81 999.6
20260509081524 43 131 0.0 0.0 0.00 0.00 0.00 83 999.7
20260509080012 43 131 0.0 0.0 0.00 0.00 0.00 81 999.8
20260509074509 44 131 0.0 0.0 0.00 0.00 0.00 81 1000.1
20260509073006 44 131 0.0 0.0 0.00 0.00 0.00 83 1000.4
20260509071502 44 131 0.0 0.0 0.00 0.00 0.00 80 1000.7
20260509070101 45 134 0.0 0.0 0.00 0.00 0.00 81 1000.9
20260509064618 45 134 0.0 0.0 0.00 0.00 0.00 80 1001.4
20260509063055 45 134 0.0 0.0 0.00 0.00 0.00 76 1001.6
20260509061554 45 134 0.0 0.0 0.00 0.00 0.00 77 1001.8
20260509060051 45 134 0.0 0.0 0.00 0.00 0.00 78 1002.2
20260509054559 45 134 0.0 0.0 0.00 0.00 0.00 78 1002.7
20260509053050 45 134 0.0 0.0 0.00 0.00 0.00 76 1002.8
20260509051544 45 134 0.0 0.0 0.00 0.00 0.00 71 1002.9
20260509050042 46 134 0.0 0.0 0.00 0.00 0.00 68 1003.2
20260509044539 46 134 0.0 0.0 0.00 0.00 0.00 66 1003.3
20260509043037 47 134 0.0 0.0 0.00 0.00 0.00 64 1003.5
20260509041558 47 134 0.0 0.0 0.00 0.00 0.00 62 1003.8
20260509040032 47 134 0.0 0.0 0.00 0.00 0.00 63 1003.9
20260509034528 47 134 0.0 0.0 0.00 0.00 0.00 67 1004.0
20260509033028 47 134 0.0 0.0 0.00 0.00 0.00 66 1004.1
20260509031534 47 134 0.0 0.0 0.00 0.00 0.00 66 1004.2
20260509030026 47 134 0.0 1.0 0.00 0.00 0.00 66 1004.4
20260509024523 47 242 0.0 0.0 0.00 0.00 0.00 65 1004.7
20260509023027 48 242 0.0 0.0 0.00 0.00 0.00 66 1004.6
20260509021530 47 242 0.0 0.0 0.00 0.00 0.00 67 1004.6
20260509020039 48 242 0.0 0.0 0.00 0.00 0.00 67 1004.7
20260509014522 48 242 0.0 0.0 0.00 0.00 0.00 62 1004.7
20260509013034 49 242 0.0 0.0 0.00 0.00 0.00 60 1004.6
20260509011520 50 242 0.0 0.0 0.00 0.00 0.00 59 1004.6
20260509010019 51 242 0.0 4.0 0.00 0.00 0.00 56 1004.7
20260509004520 52 222 0.0 3.0 0.00 0.00 0.00 56 1004.7
20260509003018 53 265 3.0 4.0 0.00 0.00 0.00 55 1004.7
20260509001517 53 259 3.0 4.0 0.00 0.00 0.00 53 1004.6
20260509000016 53 246 3.0 4.0 0.00 0.00 0.00 54 1004.7
20260508234514 54 257 4.0 5.0 0.00 0.00 0.00 55 1004.9
20260508233011 54 248 4.0 5.0 0.00 0.00 0.00 55 1005.1
20260508231510 54 238 3.0 5.0 0.00 0.00 0.00 52 1005.1
20260508230008 54 243 3.0 5.0 0.00 0.00 0.00 49 1005.2
20260508224507 54 257 4.0 6.0 0.00 0.00 0.00 51 1005.2
20260508223004 54 247 4.0 6.0 0.00 0.00 0.00 51 1005.5
20260508221502 54 261 5.0 9.0 0.00 0.00 0.00 51 1005.6
20260508220001 54 258 6.0 10.0 0.00 0.00 0.00 50 1005.7
20260508214558 53 255 6.0 11.0 0.00 0.00 0.00 57 1005.9
20260508213055 53 274 6.0 11.0 0.00 0.00 0.00 54 1005.9
20260508211556 53 264 7.0 12.0 0.00 0.00 0.00 54 1006.0
20260508210052 52 261 8.0 10.0 0.00 0.00 0.00 55 1006.1
20260508204553 51 271 7.0 15.0 0.00 0.00 0.00 59 1006.3
20260508203048 51 264 10.0 15.0 0.00 0.00 0.00 61 1006.5
20260508201548 51 251 11.0 14.0 0.00 0.00 0.00 61 1006.7
20260508200103 51 272 10.0 14.0 0.00 0.00 0.00 64 1006.8
20260508194542 51 251 11.0 16.0 0.00 0.00 0.00 62 1007.0
20260508193058 51 267 12.0 16.0 0.00 0.00 0.00 60 1007.1
20260508191541 51 261 11.0 18.0 0.00 0.00 0.00 59 1007.2
20260508190041 53 283 8.0 17.0 0.00 0.00 0.00 59 1007.1
20260508184539 52 266 7.0 15.0 0.00 0.00 0.00 57 1007.1
20260508183037 52 272 10.0 20.0 0.00 0.00 0.00 58 1007.1
20260508181546 52 233 9.0 21.0 0.00 0.00 0.00 52 1007.2
20260508180036 52 264 11.0 17.0 0.00 0.00 0.00 55 1007.3
20260508174531 52 266 9.0 16.0 0.00 0.00 0.00 53 1007.5
20260508173029 52 266 8.0 17.0 0.00 0.00 0.00 55 1007.8
20260508171527 51 273 11.0 18.0 0.00 0.00 0.00 55 1007.9
20260508170025 51 273 13.0 17.0 0.00 0.00 0.00 55 1008.0
20260508164521 51 250 10.0 16.0 0.00 0.00 0.00 56 1008.2
20260508163023 50 262 8.0 15.0 0.00 0.00 0.00 59 1008.5
20260508161517 50 268 9.0 16.0 0.00 0.00 0.00 59 1008.5
20260508160013 49 268 9.0 16.0 0.00 0.00 0.00 64 1008.7
20260508154537 49 266 9.0 13.0 0.00 0.00 0.00 62 1008.8
20260508153012 49 270 10.0 15.0 0.00 0.00 0.00 65 1009.0
20260508151512 49 275 7.0 13.0 0.00 0.00 0.00 61 1009.0
20260508150006 49 257 4.0 12.0 0.00 0.00 0.00 67 1009.0
20260508144505 48 266 5.0 10.0 0.00 0.00 0.00 66 1009.1
20260508143002 48 271 5.0 11.0 0.00 0.00 0.00 68 1009.2
20260508141605 47 264 2.0 7.0 0.00 0.00 0.00 68 1009.4
20260508140055 46 248 5.0 9.0 0.00 0.00 0.00 69 1009.4
20260508134612 45 252 5.0 10.0 0.00 0.00 0.00 71 1009.3
20260508133057 44 262 3.0 6.0 0.00 0.00 0.00 74 1009.7
20260508131548 43 269 4.0 7.0 0.00 0.00 0.00 75 1009.7
20260508130041 42 254 3.0 6.0 0.00 0.00 0.00 77 1009.7
20260508124537 42 261 3.0 4.0 0.00 0.00 0.00 75 1009.8
20260508123045 40 236 3.0 5.0 0.00 0.00 0.00 78 1009.9
20260508121532 39 238 2.0 5.0 0.00 0.00 0.00 81 1009.9
20260508120033 38 238 0.0 0.0 0.00 0.00 0.00 81 1009.9
20260508114526 38 243 2.0 5.0 0.00 0.00 0.00 83 1010.0
20260508113026 38 240 2.0 4.0 0.00 0.00 0.00 84 1009.8
20260508111533 38 275 3.0 5.0 0.00 0.00 0.00 84 1009.9
20260508110026 38 255 4.0 5.0 0.00 0.00 0.00 85 1009.9
20260508104523 38 265 3.0 5.0 0.00 0.00 0.00 86 1009.7
20260508103027 37 266 2.0 4.0 0.00 0.00 0.00 85 1009.7
20260508101522 37 264 3.0 4.0 0.00 0.00 0.00 86 1009.8
20260508100023 37 274 3.0 5.0 0.00 0.00 0.00 87 1009.8
20260508094520 37 122 0.0 4.0 0.00 0.00 0.00 82 1009.7